Moab, UT

8:18 AM MDT on October 19, 2019 (GMT -0600)
Canyonlands

Weather History for KCNY - August, 2019

Change the Weather History Date:

Saturday, August 17, 2019

  Actual Average Record
Temperature  
Mean Temperature 81 °F 77 °F  
Max Temperature 99 °F 92 °F 106 °F (1986)
Min Temperature 62 °F 62 °F 46 °F (1960)
Degree Days  
Heating Degree Days 0 0  
Month to date heating degree days 0 0  
Since 1 June heating degree days 23 17  
Since 1 July heating degree days 0 0  
Cooling Degree Days 16 12  
Month to date cooling degree days 277 234  
Year to date cooling degree days 1050 1027  
Since 1 June cooling degree days 1035 963  
Growing Degree Days 30 (Base 50)    
Moisture  
Dew Point 21 °F    
Average Humidity 13    
Maximum Humidity 21    
Minimum Humidity 5    
Precipitation  
Precipitation 0.00 in 0.03 in 0.33 in (1989)
Month to date precipitation 0.02 0.46  
Year to date precipitation 6.17 5.00  
Sea Level Pressure  
Sea Level Pressure 29.67 in    
Wind  
Wind Speed 7 mph (West)    
Max Wind Speed 21 mph    
Max Gust Speed 30 mph    
Visibility 10 miles    
Events      
T = Trace of Precipitation, MM = Missing Value Source: NWS Daily Summary

Daily Weather History Graph

Daily Weather History Graph

Search for Another Location

Airport or City:

Astronomy

Aug. 17, 2019 Rise Set
Actual Time 6:34 AM MDT 8:10 PM MDT
Civil Twilight 6:06 AM MDT 8:39 PM MDT
Nautical Twilight 5:32 AM MDT 9:13 PM MDT
Astronomical Twilight 4:55 AM MDT 9:49 PM MDT
Moon 9:41 PM MDT (8/17) 8:25 AM MDT (8/17)
Length of Visible Light 14h 32m
Length of Day
13h 36m
Waning Gibbous, 96% of the Moon is Illuminated
Aug 17
Waning Gibbous
Aug 23
Last Quarter
Aug 30
New
Sep 5
First Quarter
Sep 13
Full

Hourly Weather History & Observations

Time (MDT) Temp. Dew Point Humidity Pressure Visibility Wind Dir Wind Speed Gust Speed Precip Events Conditions
12:53 AM 75.0 °F 24.1 °F 15% 29.65 in 10.0 mi West 5.8 mph - N/A   Clear
1:53 AM 71.1 °F 23.0 °F 16% 29.65 in 10.0 mi Calm Calm - N/A   Clear
2:53 AM 71.1 °F 23.0 °F 16% 29.66 in 10.0 mi West 8.1 mph - N/A   Clear
3:53 AM 68.0 °F 21.9 °F 17% 29.66 in 10.0 mi Calm Calm - N/A   Clear
4:53 AM 62.1 °F 23.0 °F 22% 29.68 in 10.0 mi WSW 4.6 mph - N/A   Clear
5:53 AM 62.1 °F 21.9 °F 21% 29.69 in 10.0 mi Calm Calm - N/A   Clear
6:53 AM 66.9 °F 24.1 °F 20% 29.70 in 10.0 mi ENE 4.6 mph - N/A   Clear
7:53 AM 73.9 °F 25.0 °F 16% 29.70 in 10.0 mi Calm Calm - N/A   Clear
8:53 AM 79.0 °F 24.1 °F 13% 29.72 in 10.0 mi Calm Calm - N/A   Clear
9:53 AM 84.9 °F 19.9 °F 9% 29.71 in 10.0 mi Calm Calm - N/A   Clear
10:53 AM 89.1 °F 18.0 °F 7% 29.72 in 10.0 mi Variable 3.5 mph - N/A   Clear
11:53 AM 91.9 °F 18.0 °F 7% 29.70 in 10.0 mi NNW 8.1 mph - N/A   Clear
12:53 PM 96.1 °F 17.1 °F 6% 29.68 in 10.0 mi WNW 15.0 mph 21.9 mph N/A   Clear
1:53 PM 97.0 °F 16.0 °F 5% 29.67 in 10.0 mi West 13.8 mph 26.5 mph N/A   Clear
2:53 PM 97.0 °F 17.1 °F 5% 29.65 in 10.0 mi SSW 9.2 mph 27.6 mph N/A   Clear
3:53 PM 98.1 °F 17.1 °F 5% 29.62 in 10.0 mi West 16.1 mph 26.5 mph N/A   Clear
4:53 PM 97.0 °F 17.1 °F 5% 29.62 in 10.0 mi WSW 10.4 mph 23.0 mph N/A   Clear
5:53 PM 95.0 °F 19.0 °F 6% 29.62 in 10.0 mi West 17.3 mph 24.2 mph N/A   Clear
6:53 PM 93.9 °F 21.0 °F 7% 29.61 in 10.0 mi WNW 11.5 mph - N/A   Clear
7:53 PM 91.9 °F 24.1 °F 9% 29.60 in 10.0 mi NNW 12.7 mph 29.9 mph N/A   Clear
8:00 PM 91.9 °F 23.0 °F 8% 29.81 in 10.0 mi WNW 13.8 mph 19.6 mph N/A   Clear
8:53 PM 89.1 °F 23.0 °F 9% 29.62 in 10.0 mi WNW 6.9 mph - N/A   Clear
9:53 PM 82.9 °F 21.0 °F 10% 29.64 in 10.0 mi West 5.8 mph - N/A   Clear
10:53 PM 79.0 °F 21.9 °F 12% 29.65 in 10.0 mi West 5.8 mph - N/A   Clear
11:53 PM 77.0 °F 21.9 °F 13% 29.66 in 10.0 mi Calm Calm - N/A   Clear